Location: Auckland
(36.8670°S, 174.7670°E)
Time: 08:29:07
(UTC+12:00)

Vanguard 1 - Visible Passes

Search period start: 23 July 2019 00:00
Search period end: 02 August 2019 00:00
Orbit: 653 x 3830 km, 34.3° (Epoch: 22 July)

Date Brightness Start Highest point End Pass type
(mag) Time Alt. Az. Time Alt. Az. Time Alt. Az.
23 Jul 13.2 03:52:24 10° N 04:02:32 20° NNE 04:09:41 10° ENE visible
23 Jul 11.9 06:13:20 10° NW 06:24:53 44° NNE 06:31:28 10° E visible
24 Jul 12.9 04:11:35 10° NNW 04:23:53 27° NNE 04:31:50 10° E visible
24 Jul 11.5 06:34:20 10° NW 06:46:02 53° NNE 06:52:32 10° E visible
25 Jul 13.8 02:16:50 11° NNE 02:21:44 13° NE 02:27:13 10° ENE visible
25 Jul 12.6 04:31:31 10° NNW 04:45:13 35° NNE 04:53:27 10° E visible
25 Jul 11.2 06:55:35 10° WNW 07:07:09 62° NNE 07:13:30 10° E visible
26 Jul 13.5 02:39:02 17° NNE 02:43:12 19° NNE 02:51:36 10° ENE visible
26 Jul 12.2 04:51:58 10° NW 05:06:29 43° NNE 05:14:47 10° E visible
27 Jul 13.2 03:00:28 23° NNE 03:04:37 26° NNE 03:14:13 10° E visible
27 Jul 11.9 05:13:18 11° NW 05:27:44 52° NNE 05:35:55 10° E visible
28 Jul 12.9 03:21:28 29° N 03:25:59 33° NNE 03:36:08 10° E visible
28 Jul 11.7 05:34:16 11° WNW 05:48:57 60° NNE 05:56:57 10° E visible
29 Jul 13.7 01:29:22 14° ENE 01:29:22 14° ENE 01:32:16 10° ENE visible
29 Jul 12.6 03:42:10 34° N 03:47:20 41° NNE 03:57:39 10° E visible
29 Jul 11.5 05:55:23 10° WNW 06:10:10 68° NNE 06:17:56 10° E visible
30 Jul 13.5 01:49:52 20° ENE 01:49:52 20° ENE 01:55:43 10° E visible
30 Jul 12.3 04:02:37 37° NNW 04:08:40 49° NNE 04:18:56 10° E visible
30 Jul 11.3 06:16:58 10° WNW 06:31:22 74° N 06:38:53 10° E visible
31 Jul 13.2 02:10:09 28° NE 02:10:09 28° NE 02:18:05 10° E visible
31 Jul 12.1 04:22:55 37° NW 04:29:58 58° NNE 04:40:05 10° E visible
31 Jul 11.2 06:38:39 10° W 06:52:33 77° N 06:59:49 10° E visible
01 Aug 12.9 02:30:18 36° NE 02:30:18 36° NE 02:39:55 10° E visible
01 Aug 11.9 04:43:03 35° NW 04:51:17 66° NNE 05:01:08 10° E visible
